Weather WX

World > North America > United States > Montana

Billings, Montana Regional Weather

Lat: 45.79N, Lon: 108.54W
Wx Zone: MTZ035
Warning FLW WEATHER ALERT - (More Info. Click Here) Warning
Feedback

Billings, MT Regional Weather

Expires:201906270300;;134856
ASUS45 KTFX 270210
RWRMT 
Montana Regional Weather Roundup
National Weather Service Great Falls MT
800 PM MDT WED JUN 26 2019

NOTE: "FAIR" indicates few or no clouds below 12,000 feet with no
significant weather and/or obstructions to visibility.


MTZ028>42-056>058-270300-
Southcentral and southeast Montana
  
CITY           SKY/WX    TMP DP  RH WIND       PRES   REMARKS
Baker          FAIR      74  57  55 E6        29.98R                  
Big Timber     MOSUNNY   63  57  82 S6        30.02R                  
Billings       MOCLDY    69  53  56 N3        29.96R                  
Forsyth          N/A     75  50  41 E12       29.92F                  
Harlowton      LGT RAIN  62  54  75 NE12      29.96F                  
Laurel           N/A     66  52  59 N12       29.95S                  
Livingston     FAIR      66  57  72 E14       29.96S                  
Miles City     FAIR      74  55  51 NW7       29.94R                  
$$

Regional Reports...Dakotas/MN
  
CITY           SKY/WX    TMP DP  RH WIND       PRES   REMARKS
Williston      FAIR      78  55  44 E9        29.94S                  
Minot          FAIR      79  52  38 S7        29.94S                  
Dickinson      FAIR      74  61  63 E6        29.94F                  
Beach          FAIR      75  57  53 SE5       29.98R                  
Crosby         FAIR      73  57  56 N5        29.98S                  
Hettinger      FAIR      74  61  63 E9        29.96F                  
Tioga          FAIR      73  54  49 NE6       29.98S                  
Watford City   FAIR      75  55  50 E8        29.93S                  
Bismarck       FAIR      79  57  46 E6        29.96R                  
Grand Forks    PTCLDY    77  57  50 N5        29.95R                  
Fargo          FAIR      82  57  42 S5        29.95R                  
Buffalo SD       N/A     73  62  68 E10       29.92F                  
Rapid City     FAIR      73  65  75 E7        29.93R                  
Intl Falls     FAIR      71  54  54 W3        29.95R                  
Duluth         FAIR      76  55  48 W5        30.00R                  
Minneapolis    FAIR      81  55  40 VRB3      30.00F                  
$$

Regional Reports...WY/ID/WA
  
CITY           SKY/WX    TMP DP  RH WIND       PRES   REMARKS
Buffalo WY     LGT RAIN  65  58  78 N23G31    29.96F                  
Cody           LGT RAIN  66  54  65 NW10      29.98R                  
Gillette       FAIR      73  60  63 SE9       29.90F                  
Powell         FAIR      63  48  59 NW8       29.97                   
Sheridan       FAIR      64  52  64 W8        29.96R                  
Yellowstone La   N/A     61  38  42 VRB6      30.14R                  
Boise          FAIR      85  32  15 W7        29.72R                  
Couer d'Alene  LGT RAIN  60  53  77 W6G20     29.85R                  
Idaho Falls    FAIR      75  50  41 W3        29.89S                  
Salmon         FAIR      77  31  18 SW14G20   29.78R                  
Spokane        LGT RAIN  65  46  50 E12       29.79F                  
Seattle        CLOUDY    64  54  69 W6        29.88R                  
$$

Regional Reports...Alberta
  
CITY           SKY/WX    TMP DP  RH WIND       PRES   REMARKS
Pincher Creek  LGT RAIN  61  52  72 MISG      29.95S                  
$$

Regional Reports...Saskatchewan
  
CITY           SKY/WX    TMP DP  RH WIND       PRES   REMARKS
$$
  

SKY/WX - Weather  TMP - Temperature  DP - Dew Point  RH - Relative Humidity
WIND - Wind Direction/Speed PRES - Barometric Pressure VSB - Visibility
WCI - Wind Chill Index E13G22 Wind - East Wind 13 mph/Gusts of 22 mph